Location: Bidart
(43.4376°N, 1.5913°W)
Time: 04:52:01
(UTC+00:00)

USA 229 DEB - Pass Details

Date: 23 April 2026
Orbit: 844 x 1364 km, 63.4° (Epoch: 10 January)

Event Time Altitude Azimuth Distance (km) Brightness Sun altitude
Rises 20:31:33 0° 315° (NW) 3,795 8.3 -15.8°
Reaches altitude 10° 20:35:21 10° 336° (NNW) 2,949 6.9 -16.3°
Maximum altitude 20:39:32 16° 13° (NNE) 2,626 6.0 -16.9°
Drops below altitude 10° 20:43:59 10° 49° (NE) 3,175 6.1 -17.6°
Sets 20:48:19 0° 70° (ENE) 4,238 6.5 -18.2°
